FW9204 Weather Reports


time (UTC)temp
F
wind
direction
speed
knots
gust
knots
rain 1hr
in
rain 24hr
in
rain mn
in
humidity
%
barometer
mb
20260503230542 59 0 0.9 2.6 0.00 0.01 0.00 51 1019.2
20260503230050 59 5 0.0 2.6 0.00 0.01 0.00 50 1019.3
20260503225545 59 0 0.9 5.2 0.00 0.01 0.00 47 1019.4
20260503225041 59 280 0.0 5.2 0.00 0.01 0.00 49 1019.6
20260503224545 60 0 0.9 5.2 0.00 0.01 0.00 51 1019.6
20260503224041 60 0 0.9 2.6 0.00 0.01 0.00 48 1019.7
20260503223542 60 182 0.0 2.6 0.00 0.01 0.00 48 1019.7
20260503223046 60 128 0.9 2.6 0.00 0.01 0.00 49 1019.8
20260503222541 61 167 0.9 2.6 0.00 0.01 0.00 48 1019.8
20260503222043 61 199 0.9 2.6 0.00 0.01 0.00 47 1019.9
20260503221556 61 276 0.9 3.5 0.00 0.01 0.00 47 1019.9
20260503221042 61 284 0.9 3.5 0.00 0.01 0.00 45 1020.0
20260503220543 62 201 0.0 4.3 0.00 0.01 0.00 44 1020.0
20260503220056 62 0 0.9 4.3 0.00 0.01 0.00 44 1020.1
20260503215542 61 300 0.9 3.5 0.00 0.01 0.00 44 1020.0
20260503215042 61 292 0.9 4.3 0.00 0.01 0.00 45 1020.0
20260503214548 61 0 1.7 4.3 0.00 0.01 0.00 45 1020.0
20260503214045 62 188 0.9 3.5 0.00 0.01 0.00 43 1020.2
20260503213541 62 307 0.9 3.5 0.00 0.01 0.00 45 1020.3
20260503213055 62 0 0.9 3.5 0.00 0.01 0.00 47 1020.2
20260503212544 62 281 0.9 6.1 0.00 0.01 0.00 45 1020.3
20260503212040 62 0 0.9 6.1 0.00 0.01 0.00 45 1020.2
20260503211606 62 245 0.9 3.5 0.00 0.01 0.00 44 1020.4
20260503211041 63 256 0.9 4.3 0.00 0.01 0.00 43 1020.5
20260503210545 63 0 0.9 5.2 0.00 0.01 0.00 45 1020.4
20260503210051 63 89 2.6 5.2 0.00 0.01 0.00 43 1020.4
20260503205542 64 234 0.9 5.2 0.00 0.01 0.00 42 1020.4
20260503205042 64 302 0.9 5.2 0.00 0.01 0.00 41 1020.4
20260503204553 64 284 0.9 5.2 0.00 0.01 0.00 41 1020.5
20260503204041 64 257 1.7 5.2 0.00 0.01 0.00 43 1020.6
20260503203541 64 278 0.9 4.3 0.00 0.01 0.00 38 1020.6
20260503203105 64 275 0.9 3.5 0.00 0.01 0.00 38 1020.7
20260503202544 64 0 1.7 3.5 0.00 0.01 0.00 39 1020.9
20260503202041 64 236 0.9 3.5 0.00 0.01 0.00 36 1020.9
20260503201549 64 209 1.7 3.5 0.00 0.01 0.00 35 1021.0
20260503201041 64 0 0.9 5.2 0.00 0.01 0.00 36 1021.0
20260503200541 63 229 1.7 5.2 0.00 0.01 0.00 41 1021.1
20260503200051 63 250 0.9 3.5 0.00 0.01 0.00 41 1021.1
20260503195541 63 150 0.9 4.3 0.00 0.01 0.00 43 1021.1
20260503195041 63 0 1.7 4.3 0.00 0.01 0.00 40 1021.2
20260503194554 63 95 1.7 3.5 0.00 0.01 0.00 42 1021.4
20260503194044 64 205 0.9 4.3 0.00 0.01 0.00 42 1021.4
20260503193541 64 0 1.7 4.3 0.00 0.01 0.00 42 1021.4
20260503193051 64 293 0.9 4.3 0.00 0.01 0.00 44 1021.6
20260503192540 63 327 0.9 5.2 0.00 0.01 0.00 48 1021.6
20260503192040 63 151 2.6 5.2 0.00 0.01 0.00 46 1021.7
20260503191554 63 116 0.9 4.3 0.00 0.01 0.00 44 1021.7
20260503191043 63 284 1.7 5.2 0.00 0.01 0.00 46 1021.8
20260503190541 63 0 0.0 5.2 0.00 0.01 0.00 49 1021.8
20260503190055 63 208 0.9 4.3 0.00 0.01 0.00 47 1022.0
20260503185541 63 248 1.7 5.2 0.00 0.01 0.00 46 1022.1
20260503185041 63 313 1.7 6.1 0.00 0.01 0.00 50 1022.1
20260503184554 63 301 0.9 6.1 0.00 0.01 0.00 51 1022.1
20260503184041 63 22 1.7 5.2 0.00 0.01 0.00 53 1022.1
20260503183540 62 136 1.7 5.2 0.00 0.01 0.00 51 1022.2
20260503183048 62 226 0.9 7.0 0.00 0.01 0.00 51 1022.2
20260503182541 62 215 1.7 7.0 0.00 0.01 0.00 48 1022.3
20260503182042 62 113 0.9 3.5 0.00 0.01 0.00 50 1022.3
20260503181601 62 143 0.9 3.5 0.00 0.01 0.00 52 1022.2
20260503181042 62 302 0.9 5.2 0.00 0.01 0.00 52 1022.3
20260503180543 61 290 0.9 5.2 0.00 0.01 0.00 53 1022.4
20260503180053 61 0 1.7 5.2 0.00 0.01 0.00 47 1022.3
20260503175541 60 263 0.9 3.5 0.00 0.01 0.00 50 1022.6
20260503175040 60 252 0.9 3.5 0.00 0.01 0.00 46 1022.6
20260503174550 60 88 1.7 3.5 0.00 0.01 0.00 48 1022.6
20260503174041 60 205 0.9 4.3 0.00 0.01 0.00 47 1022.6
20260503173541 60 34 1.7 4.3 0.00 0.01 0.00 52 1022.9
20260503173057 59 0 0.9 3.5 0.00 0.01 0.00 48 1022.9
20260503172541 59 213 1.7 3.5 0.00 0.01 0.00 52 1022.9
20260503172041 59 0 0.9 5.2 0.00 0.01 0.00 53 1023.0
20260503171549 59 0 0.9 5.2 0.00 0.01 0.00 48 1023.0
20260503171041 58 102 0.9 5.2 0.00 0.01 0.00 52 1023.1
20260503170541 58 254 0.0 5.2 0.00 0.01 0.00 53 1023.2
20260503150541 50 136 0.9 3.5 0.00 0.01 0.00 64 1024.1
20260503131042 40 0 0.0 1.7 0.00 0.01 0.00 96 1023.9
20260503130539 40 0 0.0 0.9 0.00 0.01 0.00 96 1024.0
20260503110540 34 0 0.0 0.0 0.00 0.01 0.00 94 1022.6
20260503081554 37 0 0.0 0.0 0.00 0.01 0.00 94 1021.8
20260503081042 37 0 0.0 0.0 0.00 0.01 0.00 94 1021.9
20260503080544 37 0 0.0 0.0 0.00 0.01 0.00 94 1021.6
20260503072542 38 0 0.0 0.0 0.00 0.01 0.00 94 1021.4
20260503072042 38 0 0.0 0.0 0.00 0.01 0.00 94 1021.4
20260503071558 38 0 0.0 0.0 0.00 0.01 0.00 94 1021.3
20260503071042 38 0 0.0 0.0 0.00 0.01 0.00 93 1021.3
20260503070542 38 0 0.0 0.0 0.00 0.01 0.00 93 1021.3
20260503060108 39 0 0.0 0.0 0.00 0.01 0.00 93 1021.2
20260503055043 39 0 0.0 0.0 0.00 0.01 0.00 93 1021.1
20260503054549 39 0 0.0 0.0 0.00 0.01 0.00 93 1021.3
20260503054042 39 0 0.0 0.0 0.00 0.01 0.00 93 1021.2
20260503053542 39 0 0.0 0.0 0.00 0.01 0.00 93 1021.2
20260503053050 40 0 0.0 0.0 0.00 0.01 0.00 93 1021.1
20260503052542 40 0 0.0 0.0 0.00 0.01 0.00 93 1021.2
20260503052043 40 0 0.0 0.0 0.00 0.01 0.00 92 1021.2
20260503051552 40 0 0.0 0.0 0.00 0.01 0.00 92 1021.2
20260503051042 40 0 0.0 0.0 0.00 0.01 0.00 92 1021.0
20260503050539 40 0 0.0 0.0 0.00 0.01 0.00 92 1021.0
20260503050055 41 0 0.0 0.0 0.00 0.01 0.00 92 1021.0
20260503045541 41 0 0.0 0.0 0.00 0.01 0.01 92 1020.9
20260503045042 41 0 0.0 0.0 0.00 0.01 0.01 92 1020.9
20260503044556 41 0 0.0 0.0 0.00 0.01 0.01 92 1021.0
20260503044046 42 0 0.0 0.0 0.00 0.01 0.01 92 1021.0
20260503043542 42 0 0.0 0.0 0.00 0.01 0.01 92 1021.0
20260503043055 42 0 0.0 0.0 0.00 0.01 0.01 92 1021.0
20260503042542 42 0 0.0 0.0 0.00 0.01 0.01 92 1020.9
20260503042042 42 0 0.0 0.0 0.00 0.01 0.01 92 1020.9
20260503041549 43 0 0.0 0.0 0.00 0.01 0.01 93 1020.9
20260503041041 43 0 0.0 0.0 0.00 0.01 0.01 93 1020.9
20260503040541 43 0 0.0 0.0 0.00 0.01 0.01 93 1020.8
20260503040055 43 0 0.0 0.0 0.00 0.01 0.01 93 1020.7
20260503035541 43 0 0.0 0.0 0.00 0.01 0.01 93 1020.7
20260503035042 43 0 0.0 0.0 0.00 0.01 0.01 93 1020.6
20260503034551 43 0 0.0 0.0 0.00 0.01 0.01 93 1020.7
20260503034043 43 0 0.0 0.0 0.00 0.01 0.01 93 1020.7
20260503033546 43 0 0.0 0.0 0.00 0.01 0.01 93 1020.8
20260503033103 43 0 0.0 0.0 0.00 0.01 0.01 93 1020.8
20260503032542 43 0 0.0 0.0 0.00 0.01 0.01 93 1020.8
20260503032042 43 0 0.0 0.0 0.00 0.01 0.01 93 1020.8
20260503031548 42 0 0.0 0.0 0.00 0.01 0.01 92 1020.8
20260503031041 42 0 0.0 0.0 0.00 0.01 0.01 92 1020.7
20260503030542 42 0 0.0 0.0 0.00 0.01 0.01 92 1020.7
20260503030051 42 0 0.0 0.0 0.00 0.01 0.01 92 1020.7
20260503025544 42 0 0.0 0.0 0.00 0.01 0.01 91 1020.6
20260503025041 43 0 0.0 0.0 0.00 0.01 0.01 91 1020.5
20260503024552 43 0 0.0 0.0 0.00 0.01 0.01 90 1020.5
20260503024041 43 0 0.0 0.0 0.00 0.01 0.01 91 1020.6
20260503023544 43 0 0.0 0.0 0.00 0.01 0.01 91 1020.6
20260503023101 43 0 0.0 0.0 0.00 0.01 0.01 90 1020.5
20260503022542 44 0 0.0 0.0 0.00 0.01 0.01 90 1020.5
20260503022042 44 0 0.0 0.0 0.00 0.01 0.01 90 1020.6
20260503021554 44 0 0.0 0.0 0.00 0.01 0.01 90 1020.6
20260503021042 44 0 0.0 0.0 0.01 0.01 0.01 90 1020.5
20260503020542 45 0 0.0 0.0 0.01 0.01 0.01 90 1020.5
20260503020046 45 0 0.0 0.0 0.01 0.01 0.01 89 1020.5
20260503015541 45 0 0.0 0.0 0.01 0.01 0.01 89 1020.5
20260503015041 45 0 0.0 0.0 0.01 0.01 0.01 89 1020.5
20260503014549 45 0 0.0 0.0 0.01 0.01 0.01 89 1020.5
20260503014044 46 0 0.0 1.7 0.01 0.01 0.01 89 1020.5
20260503013542 46 0 0.0 1.7 0.01 0.01 0.01 89 1020.4
20260503013104 46 0 0.0 1.7 0.01 0.01 0.01 88 1020.5
20260503012542 46 0 0.0 1.7 0.01 0.01 0.01 88 1020.5
20260503012052 46 285 0.0 2.6 0.01 0.01 0.01 87 1020.5
20260503011602 46 282 0.9 2.6 0.01 0.01 0.01 87 1020.3
20260503011045 47 281 0.9 2.6 0.00 0.00 0.00 86 1020.3
20260503010541 47 98 0.9 2.6 0.00 0.00 0.00 85 1020.2
20260503010055 48 285 1.7 3.5 0.00 0.00 0.00 82 1020.2
20260503005545 48 288 0.9 3.5 0.00 0.00 0.00 80 1020.0
20260503005042 49 273 0.9 3.5 0.00 0.00 0.00 78 1019.9
20260503004548 49 290 0.9 2.6 0.00 0.00 0.00 76 1019.8
20260503004041 49 294 0.9 1.7 0.00 0.00 0.00 74 1019.6
20260503003541 49 304 0.9 3.5 0.00 0.00 0.00 74 1019.5
20260503003059 49 0 0.0 4.3 0.00 0.00 0.00 73 1019.3
20260503002541 50 205 0.0 4.3 0.00 0.00 0.00 72 1019.1
20260503002041 50 257 0.9 4.3 0.00 0.00 0.00 70 1019.0
20260503001611 51 63 0.9 4.3 0.00 0.00 0.00 69 1018.8
20260503001042 51 40 0.9 4.3 0.00 0.00 0.00 68 1018.7
20260503000543 52 0 0.0 2.6 0.00 0.00 0.00 65 1018.7
20260503000114 52 63 0.0 2.6 0.00 0.00 0.00 64 1018.4
20260502235542 53 288 0.9 3.5 0.00 0.00 0.00 63 1018.4
20260502235042 53 234 0.9 3.5 0.00 0.00 0.00 62 1018.3
20260502234557 53 115 0.0 1.7 0.00 0.00 0.00 64 1018.4
20260502234043 53 0 0.0 1.7 0.00 0.00 0.00 65 1018.4
20260502233541 53 0 0.0 1.7 0.00 0.00 0.00 64 1018.3
20260502233051 53 247 0.0 1.7 0.00 0.00 0.00 64 1018.3
20260502232541 53 0 0.0 1.7 0.00 0.00 0.00 60 1018.3
20260502232041 53 0 0.0 1.7 0.00 0.00 0.00 61 1018.1
20260502231549 53 0 0.0 1.7 0.00 0.00 0.00 61 1018.3
20260502231042 54 0 0.0 3.5 0.00 0.00 0.00 59 1018.3